[[{"header":{"parameterUnit":"m.s-1","parameterCategory":1,"la1":30.2991,"la2":30.254,"lo1":-89.0895,"lo2":-89.0444,"dy":0.0017,"dx":0.0017,"nx":28,"ny":28,"refTime":"2025-01-21T09:00:00:Z","depth":0,"parameterNumber":2,"parameterNumberName":"U-component_of_WINDS"},"data":[0,0,0,0,0,0,0,0,0,0,0,0,0,0,0,0,0,0,0,0,0,0,0,0,0,0,0,0,0,0,0,0,0,0,0,0,0,0,0,0,0,0,0,0,0,0,0,0,0,0,0,0,0,0,0,0,0,0,-2.5531,-2.5531,0,-2.5587,-2.5588,-2.5589,-2.5509,-2.5506,-2.5503,-2.55,-2.5561,-2.5565,-2.5569,0,0,0,0,0,0,0,0,0,0,0,0,0,-2.5356,-2.536,-2.5531,-2.5531,-2.5532,-2.5587,-2.5588,-2.5589,-2.5509,-2.5506,-2.5502,-2.5499,-2.556,-2.5565,-2.557,0,0,0,0,0,0,0,0,0,0,0,0,0,-2.5424,-2.5361,-2.5531,-2.5499,-2.5497,-2.5587,-2.5588,-2.5589,-2.551,-2.5506,-2.5501,-2.5497,-2.5558,-2.5564,-2.5571,-2.5695,0,0,-2.559,-2.5593,0,0,0,0,0,0,0,0,-2.542,-2.5431,-2.5503,-2.5501,-2.5499,-2.5536,-2.5548,-2.5625,-2.5511,-2.5505,-2.55,-2.5495,-2.5557,-2.5563,-2.5583,-2.5698,-2.5701,-2.5591,-2.5595,-2.5597,-2.5599,0,0,0,0,0,0,0,-2.5416,-2.5428,-2.5553,-2.5504,-2.5502,-2.5483,-2.5488,-2.5563,-2.5554,-2.5505,-2.5499,-2.5507,-2.5555,-2.5577,-2.5584,-2.5702,-2.559,-2.5596,-2.56,-2.5603,-2.5923,-2.5927,0,0,0,0,0,0,-2.5415,-2.5424,-2.5551,-2.5555,-2.5448,-2.5489,-2.5495,-2.5529,-2.5553,-2.5553,-2.5511,-2.5503,-2.5568,-2.5576,-2.5586,-2.5734,-2.5597,-2.5603,-2.5607,-2.5918,-2.5924,-2.5929,0,0,0,0,0,0,-2.5411,-2.5427,-2.5549,-2.5488,-2.5502,-2.5497,-2.5536,-2.5532,-2.5554,-2.5557,-2.5555,-2.5535,-2.5565,-2.5577,-2.5669,-2.5735,-2.5606,-2.5612,-2.5913,-2.592,-2.5926,-2.6032,0,0,0,0,0,0,-2.5406,-2.5426,-2.5473,-2.549,-2.5506,-2.5631,-2.554,-2.5536,-2.5565,-2.5556,-2.5579,-2.5579,-2.5563,-2.5659,-2.5675,-2.5742,-2.5617,-2.5907,-2.5916,-2.5924,-2.6023,-2.6042,-2.6058,0,0,0,0,0,-2.54,-2.5501,-2.5476,-2.5491,-2.5564,-2.5635,-2.5644,-2.5622,-2.5571,-2.5619,-2.562,-2.5579,-2.5725,-2.567,-2.5686,-2.5756,-2.5902,-2.5913,-2.5923,-2.6015,-2.6038,-2.6058,0,0,0,0,0,0,-2.5493,-2.5503,-2.5475,-2.5583,-2.5609,-2.5621,-2.5681,-2.5647,-2.5689,-2.5679,-2.565,-2.5656,-2.5755,-2.5764,-2.5702,-2.5878,-2.5805,-2.582,-2.5869,-2.5891,-2.5909,-2.5905,-2.5622,0,0,0,0,0,-2.5526,-2.5582,-2.5587,-2.5683,-2.5697,-2.5687,-2.5717,-2.5697,-2.5723,-2.5734,-2.5742,-2.5769,-2.5821,-2.5856,-2.5904,-2.6023,-2.6027,-2.6079,-2.6097,-2.6111,-2.6125,-2.6189,-2.6212,-2.5963,-2.5963,-2.5963,0,0,-2.5595,-2.5607,-2.5645,-2.5702,-2.5719,-2.5779,-2.5696,-2.5763,-2.5807,-2.5744,-2.5832,-2.5839,-2.5867,-2.5973,-2.602,-2.5984,-2.6194,-2.6125,-2.6136,-2.6142,-2.6202,-2.6226,-2.6247,-2.597,-2.5969,-2.5968,0,0,-2.5752,-2.5766,-2.5847,-2.5866,-2.5893,-2.5886,-2.5905,-2.5922,-2.5925,-2.6012,-2.5966,-2.6018,-2.6108,-2.613,-2.6153,-2.6317,-2.6281,-2.6333,-2.6427,-2.649,-2.651,-2.6527,-2.6588,-2.6609,-2.6346,-2.6347,-2.6347,0,-2.5835,-2.5922,-2.5894,-2.5963,-2.599,-2.5934,-2.6017,-2.6037,-2.6079,-2.6099,-2.6057,-2.6169,-2.6184,-2.6295,-2.6335,-2.6355,-2.6378,-2.6332,-2.6509,-2.6526,-2.6542,-2.6599,-2.6622,-2.6353,-2.6352,-2.6352,-2.6351,0,-2.6023,-2.6084,-2.6147,-2.6188,-2.6221,-2.6297,-2.6282,-2.6319,-2.6296,-2.6293,-2.6383,-2.6399,-2.6449,-2.6473,-2.6452,-2.6582,-2.6559,-2.6514,-2.644,-2.6573,-2.6626,-2.6647,-2.6362,-2.636,-2.6358,-2.6356,0,0,-2.6243,-2.6266,-2.6289,-2.6307,-2.6332,-2.6379,-2.6453,-2.6501,-2.6534,-2.6564,-2.6626,-2.6703,-2.6661,-2.6688,-2.6668,-2.6723,-2.6854,-2.6671,-2.6671,-2.6706,-2.6999,-2.7035,-2.706,-2.6828,-2.6833,-2.6836,-2.6997,0,-2.64,-2.6527,-2.6503,-2.6627,-2.6683,-2.663,-2.6694,-2.6717,-2.6715,-2.6764,-2.6762,-2.6818,-2.6758,-2.6773,-2.6825,-2.6827,-2.6913,-2.6815,-2.6888,-2.689,-2.6885,-2.7088,-2.7126,-2.7278,-2.7018,-2.7021,-2.7024,0,-2.6602,-2.6639,-2.6768,-2.6784,-2.6807,-2.6865,-2.6907,-2.6953,-2.6978,-2.6973,-2.7002,-2.6972,-2.7046,-2.6969,-2.7071,-2.7005,-2.7033,-2.7038,-2.7044,-2.7052,-2.6967,-2.7103,-2.7325,-2.7349,-2.7056,-2.7053,-2.7051,0,-2.6751,-2.6833,-2.6921,-2.6938,-2.6958,-2.7,-2.7011,-2.7031,-2.7061,-2.7098,-2.7118,-2.7163,-2.7189,-2.7225,-2.7208,-2.7154,-2.7314,-2.7236,-2.7314,-2.7314,-2.7352,-2.735,-2.7584,-2.7366,-2.7366,-2.7366,-2.7365,0,-2.6931,-2.7013,-2.6988,-2.7043,-2.7133,-2.7104,-2.7194,-2.7198,-2.7217,-2.7272,-2.7228,-2.728,-2.7254,-2.7305,-2.7292,-2.7379,-2.739,-2.7389,-2.7386,-2.7395,-2.7395,-2.7415,-2.7405,-2.7372,-2.737,-2.7369,-2.7368,0,-2.7115,-2.7101,-2.7194,-2.7205,-2.7209,-2.7275,-2.7285,-2.7336,-2.7331,-2.7401,-2.7416,-2.7408,-2.7465,-2.7451,-2.7514,-2.7505,-2.7616,-2.7598,-2.7608,-2.7604,-2.7684,-2.7677,-2.794,-2.7973,-2.7732,-2.7735,-2.7736,0,-2.7232,-2.7293,-2.7311,-2.7344,-2.7357,-2.7411,-2.7442,-2.7416,-2.745,-2.7482,-2.753,-2.7583,-2.7624,-2.7719,-2.7719,-2.7767,-2.7751,-2.784,-2.7758,-2.7766,-2.7755,-2.7752,-2.7759,-2.7857,-2.786,-2.7862,-2.7864,0,-2.7442,-2.7432,-2.7477,-2.7521,-2.7558,-2.7591,-2.762,-2.765,-2.7626,-2.7666,-2.7724,-2.7756,-2.782,-2.7874,-2.7918,-2.7929,-2.7894,-2.7889,-2.791,-2.7921,-2.7925,-2.7926,-2.7654,-2.7884,-2.7882,-2.788,-2.7879,-2.7878,-2.7597,-2.7649,-2.767,-2.7722,-2.774,-2.7768,-2.7817,-2.7817,-2.7865,-2.7914,-2.7895,-2.7962,-2.7985,-2.804,-2.8056,-2.8108,-2.8075,-2.8105,-2.8113,-2.8122,-2.8132,-2.7915,-2.8116,-2.8115,-2.8115,-2.8114,-2.8114,0,-2.7807,-2.7816,-2.7864,-2.7906,-2.7947,-2.7907,-2.7937,-2.7975,-2.8034,-2.8057,-2.8098,-2.8165,-2.8217,-2.8221,-2.827,-2.8311,-2.8296,-2.8325,-2.8323,-2.8326,-2.8158,-2.8136,-2.8336,-2.8336,-2.8336,-2.8336,-2.8336,-2.8336,-2.7921,-2.8007,-2.8,-2.8095,-2.8104,-2.8169,-2.8189,-2.8215,-2.8234,-2.831,-2.8352,-2.8354,-2.837,-2.8419,-2.8465,-2.8465,-2.8486,-2.8522,-2.8516,-2.836,-2.8338,-2.8317,-2.8296,-2.8526,-2.8527,-2.868,-2.8681,-2.8682]},{"header":{"parameterUnit":"m.s-1","parameterCategory":1,"la1":30.2991,"la2":30.254,"lo1":-89.0895,"lo2":-89.0444,"dy":0.0017,"dx":0.0017,"nx":28,"ny":28,"refTime":"2025-01-21T09:00:00:Z","depth":0,"parameterNumber":3,"parameterNumberName":"V-component_of_WINDS"},"data":[0,0,0,0,0,0,0,0,0,0,0,0,0,0,0,0,0,0,0,0,0,0,0,0,0,0,0,0,0,0,0,0,0,0,0,0,0,0,0,0,0,0,0,0,0,0,0,0,0,0,0,0,0,0,0,0,0,0,-8.0303,-8.0304,0,-8.0376,-8.0377,-8.0378,-8.0272,-8.0269,-8.0265,-8.0262,-8.0331,-8.0336,-8.0342,0,0,0,0,0,0,0,0,0,0,0,0,0,-8.0067,-8.0072,-8.0303,-8.0304,-8.0305,-8.0376,-8.0377,-8.0378,-8.0273,-8.0269,-8.0264,-8.026,-8.0329,-8.0336,-8.0342,0,0,0,0,0,0,0,0,0,0,0,0,0,-8.0158,-8.0074,-8.0303,-8.0261,-8.0258,-8.0376,-8.0377,-8.0378,-8.0274,-8.0268,-8.0263,-8.0258,-8.0327,-8.0335,-8.0343,-8.0503,0,0,-8.0367,-8.0371,0,0,0,0,0,0,0,0,-8.0153,-8.0167,-8.0267,-8.0264,-8.0261,-8.031,-8.0319,-8.042,-8.0275,-8.0268,-8.0261,-8.0255,-8.0328,-8.0336,-8.0361,-8.0506,-8.0509,-8.0368,-8.0373,-8.0376,-8.0378,0,0,0,0,0,0,0,-8.0147,-8.0163,-8.0332,-8.0268,-8.0265,-8.0237,-8.0244,-8.0338,-8.0328,-8.0268,-8.0261,-8.0271,-8.0326,-8.0354,-8.0362,-8.051,-8.0368,-8.0375,-8.038,-8.0383,-8.0788,-8.0794,0,0,0,0,0,0,-8.0146,-8.0158,-8.0329,-8.0334,-8.0193,-8.0246,-8.0253,-8.03,-8.0327,-8.0326,-8.0276,-8.0266,-8.0343,-8.0353,-8.0364,-8.0552,-8.0376,-8.0383,-8.0388,-8.0782,-8.0789,-8.0796,0,0,0,0,0,0,-8.0142,-8.0163,-8.0326,-8.0244,-8.0263,-8.0256,-8.0309,-8.0304,-8.0332,-8.0333,-8.033,-8.0307,-8.0339,-8.0353,-8.0469,-8.0553,-8.0387,-8.0394,-8.0775,-8.0784,-8.0792,-8.0931,0,0,0,0,0,0,-8.0135,-8.0162,-8.0224,-8.0247,-8.0268,-8.0433,-8.0314,-8.0309,-8.0347,-8.0335,-8.0361,-8.036,-8.0336,-8.0458,-8.0477,-8.0561,-8.04,-8.0767,-8.0779,-8.079,-8.0919,-8.0943,-8.0965,0,0,0,0,0,-8.0127,-8.0259,-8.0228,-8.0249,-8.0346,-8.0438,-8.0449,-8.042,-8.0354,-8.0415,-8.0415,-8.0359,-8.0541,-8.0471,-8.0491,-8.0579,-8.0762,-8.0776,-8.0789,-8.0908,-8.0939,-8.0964,0,0,0,0,0,0,-8.0245,-8.0261,-8.0226,-8.037,-8.0403,-8.042,-8.0496,-8.0454,-8.0505,-8.0491,-8.0451,-8.0458,-8.0583,-8.0592,-8.0513,-8.0735,-8.064,-8.0658,-8.0724,-8.0753,-8.0775,-8.077,-8.0407,0,0,0,0,0,-8.0288,-8.0363,-8.0372,-8.0498,-8.0516,-8.0504,-8.0543,-8.0518,-8.055,-8.0563,-8.0571,-8.0603,-8.0667,-8.071,-8.0769,-8.0919,-8.0923,-8.099,-8.1013,-8.1032,-8.1048,-8.1126,-8.1156,-8.084,-8.084,-8.084,0,0,-8.0376,-8.0395,-8.0444,-8.0522,-8.0545,-8.0621,-8.0516,-8.0602,-8.0658,-8.0575,-8.0686,-8.0693,-8.0726,-8.086,-8.0919,-8.0871,-8.1136,-8.1049,-8.1064,-8.107,-8.1143,-8.1173,-8.12,-8.0849,-8.0848,-8.0846,0,0,-8.0577,-8.0599,-8.0706,-8.0731,-8.0768,-8.0759,-8.0784,-8.0807,-8.081,-8.092,-8.0859,-8.0924,-8.1036,-8.1062,-8.1089,-8.1299,-8.1249,-8.132,-8.1439,-8.1516,-8.1541,-8.1563,-8.1637,-8.1664,-8.1336,-8.1336,-8.1336,0,-8.0682,-8.0798,-8.0766,-8.0856,-8.0891,-8.0821,-8.0928,-8.0953,-8.1007,-8.1032,-8.0978,-8.1116,-8.1134,-8.1272,-8.1323,-8.1348,-8.1375,-8.1316,-8.1541,-8.1562,-8.1582,-8.1652,-8.168,-8.1344,-8.1343,-8.1342,-8.1342,0,-8.0924,-8.1005,-8.1086,-8.1142,-8.1186,-8.1284,-8.1265,-8.1313,-8.1284,-8.128,-8.1392,-8.141,-8.1471,-8.1502,-8.1474,-8.1636,-8.1605,-8.1547,-8.1451,-8.1621,-8.1686,-8.1713,-8.1356,-8.1353,-8.1351,-8.1349,0,0,-8.1202,-8.1238,-8.1268,-8.1292,-8.1327,-8.1388,-8.1481,-8.1543,-8.1584,-8.1623,-8.17,-8.1796,-8.1742,-8.1773,-8.1747,-8.1815,-8.1979,-8.1748,-8.1748,-8.179,-8.2157,-8.2201,-8.2233,-8.1946,-8.1951,-8.1955,-8.2154,0,-8.1402,-8.1566,-8.154,-8.1698,-8.1771,-8.1705,-8.1786,-8.1816,-8.1814,-8.1874,-8.1871,-8.194,-8.1864,-8.1882,-8.1947,-8.1946,-8.2052,-8.1931,-8.2015,-8.2019,-8.2009,-8.2267,-8.2313,-8.25,-8.218,-8.2184,-8.2187,0,-8.1657,-8.1707,-8.1874,-8.1896,-8.1926,-8.2,-8.2053,-8.2112,-8.2143,-8.2137,-8.2173,-8.2133,-8.2225,-8.2128,-8.2252,-8.2171,-8.2203,-8.2208,-8.2214,-8.222,-8.2113,-8.2279,-8.2559,-8.2587,-8.2227,-8.2224,-8.2221,0,-8.1842,-8.1951,-8.2064,-8.2086,-8.2116,-8.2169,-8.2183,-8.2209,-8.2247,-8.2293,-8.2317,-8.2373,-8.2403,-8.2446,-8.2423,-8.2355,-8.2551,-8.2452,-8.2547,-8.2548,-8.2591,-8.2588,-8.288,-8.2613,-8.2613,-8.2612,-8.2612,0,-8.2068,-8.2172,-8.2147,-8.2217,-8.2331,-8.2298,-8.2411,-8.2417,-8.244,-8.2508,-8.2454,-8.2519,-8.2484,-8.2545,-8.2527,-8.2632,-8.2646,-8.2642,-8.2636,-8.2647,-8.2648,-8.2667,-8.2653,-8.262,-8.2618,-8.2617,-8.2615,0,-8.2293,-8.2281,-8.24,-8.2419,-8.2426,-8.2509,-8.2523,-8.2587,-8.2581,-8.2668,-8.2686,-8.2677,-8.2746,-8.2727,-8.2801,-8.2789,-8.2922,-8.2899,-8.2912,-8.2906,-8.3001,-8.2993,-8.3315,-8.3355,-8.3064,-8.3067,-8.3069,0,-8.2438,-8.2517,-8.2544,-8.2587,-8.2606,-8.2675,-8.2714,-8.2685,-8.2727,-8.2768,-8.2827,-8.2891,-8.2942,-8.3055,-8.3053,-8.311,-8.3088,-8.3197,-8.3096,-8.3104,-8.3088,-8.3084,-8.3091,-8.3217,-8.322,-8.3223,-8.3225,0,-8.2697,-8.2687,-8.2746,-8.2804,-8.2852,-8.2896,-8.2933,-8.2971,-8.2944,-8.2994,-8.3065,-8.3104,-8.3181,-8.3245,-8.3297,-8.3309,-8.3263,-8.3257,-8.3282,-8.3294,-8.3298,-8.3296,-8.2966,-8.325,-8.3247,-8.3246,-8.3244,-8.3243,-8.2886,-8.2952,-8.2982,-8.3049,-8.3075,-8.3112,-8.3173,-8.3175,-8.3234,-8.3296,-8.3274,-8.3355,-8.3382,-8.3446,-8.3465,-8.3527,-8.3485,-8.3521,-8.353,-8.3539,-8.3551,-8.3289,-8.3536,-8.3535,-8.3535,-8.3534,-8.3534,0,-8.314,-8.3156,-8.3219,-8.3274,-8.3327,-8.3281,-8.332,-8.3366,-8.3439,-8.3469,-8.352,-8.3601,-8.3663,-8.3666,-8.3724,-8.3772,-8.3752,-8.3788,-8.3784,-8.3787,-8.3586,-8.3558,-8.3804,-8.3803,-8.3803,-8.3803,-8.3803,-8.3803,-8.3279,-8.3389,-8.3382,-8.3503,-8.3518,-8.3598,-8.3625,-8.3657,-8.3681,-8.3775,-8.3826,-8.3829,-8.3847,-8.3906,-8.396,-8.3959,-8.3982,-8.4026,-8.4017,-8.3829,-8.3802,-8.3776,-8.375,-8.4032,-8.4032,-8.4214,-8.4215,-8.4217]}]]